Racecast

Gretna HS

Difficulty:i +3.6% (5000m, the usual distance here) · 138 results · 138 athletes

All 5000m

Distances raced here

DistanceDifficultyiResults FirstLast
5000m +3.6% 138 2016-10-26 2024-09-25

Best speed ratings all distances

Boys

#AthleteRatingi TimeDistSchoolDate
1 Dylan Cline 123.2 17:19.5 5000m Gretna (NE) 2016-10-26
2 Cameron Lee 121.9 17:30.2 5000m Dan River (VA) 2016-10-26
3 Shane Stevens 121.7 17:27.3 5000m Altavista (VA) 2024-09-25
4 Walker Cline 120.0 17:46.7 5000m Gretna (NE) 2016-10-26
5 Heath Doss 116.1 18:23.2 5000m Gretna (NE) 2016-10-26
6 Hunter Cline 114.5 18:38.3 5000m Gretna (NE) 2016-10-26
7 Fox Jackson 113.3 18:49.7 5000m Appomattox County (VA) 2016-10-26
8 Harry Caldwell 111.2 19:11.8 5000m Appomattox County (VA) 2016-10-26
9 Ethan Doss 110.1 19:23 5000m Gretna (NE) 2016-10-26
10 Clay Hamilton 109.5 19:23.9 5000m Appomattox County (VA) 2024-09-25
11 Christian Goodman 109.5 19:24.3 5000m Appomattox County (VA) 2024-09-25
12 josiah Monroe 107.1 19:50.5 5000m Altavista (VA) 2024-09-25
13 Jason Ross 106.2 19:59.8 5000m Nelson County (KY) 2024-09-25
14 Jeremiah Garcia 105.8 20:04.3 5000m Chatham (NJ) 2024-09-25
15 Tristan Lovins 105.7 20:11.3 5000m Appomattox County (VA) 2016-10-26
16 Jeremiah Slaughter 104.4 20:26.3 5000m Dan River (VA) 2016-10-26
17 Tyler Moore 104.2 20:28.6 5000m Buckingham County (VA) 2016-10-26
18 Cameron Duncan 104.1 20:29.6 5000m Appomattox County (VA) 2016-10-26
19 Brendan Gallier 104.1 20:30.1 5000m Appomattox County (VA) 2016-10-26
20 Robbie Richardson 104.0 20:30.7 5000m Dan River (VA) 2016-10-26
21 Nick Hernandez 103.9 20:32.3 5000m Dan River (VA) 2016-10-26
22 Mason Arrington 103.7 20:35 5000m Gretna (NE) 2016-10-26
23 Lee Dooley 103.5 20:32 5000m Dan River (VA) 2024-09-25
24 Brett Reynolds 103.0 20:43.7 5000m Chatham (NJ) 2016-10-26
25 Will Moshenek 102.9 20:44.6 5000m Dan River (VA) 2016-10-26
26 Seth Shelton 102.3 20:51.8 5000m Dan River (VA) 2016-10-26
27 Lucas Hunter 102.2 20:46.7 5000m Appomattox County (VA) 2024-09-25
28 Ethan Dunevant 101.6 21:00 5000m Chatham (NJ) 2016-10-26
29 Nathan Manthey 101.4 20:56.9 5000m Nelson County (KY) 2024-09-25
30 Lincoln Horne 101.4 20:57.1 5000m Dan River (VA) 2024-09-25
31 Jaiden Bishop 101.2 21:05.6 5000m Buckingham County (VA) 2016-10-26
32 Dalton Stuple 99.8 21:22.7 5000m Buckingham County (VA) 2016-10-26
33 Gavin Parrish 99.4 21:27.7 5000m Chatham (NJ) 2016-10-26
34 Drake Gardner 98.5 21:39.5 5000m Gretna (NE) 2016-10-26
35 Macon Maxey 98.4 21:41.8 5000m Chatham (NJ) 2016-10-26
36 Christopher O'Neill 98.1 21:44.6 5000m Appomattox County (VA) 2016-10-26
37 Jackson Winter 97.3 21:50 5000m Nelson County (KY) 2024-09-25
38 Jaime Simental 97.1 21:52.6 5000m Chatham (NJ) 2024-09-25
39 Ian Martin 96.5 22:06.3 5000m Buckingham County (VA) 2016-10-26
40 Will Evans 96.5 22:01.6 5000m Dan River (VA) 2024-09-25
41 Trenton Houser 96.1 22:12 5000m Buckingham County (VA) 2016-10-26
42 Christopher Richardson 96.0 22:13.9 5000m Appomattox County (VA) 2016-10-26
43 Brice Jones 95.9 22:08.7 5000m Dan River (VA) 2024-09-25
44 Barrett Scott 95.5 22:15 5000m Chatham (NJ) 2024-09-25
45 Ethan Caldwell 94.5 22:34.6 5000m Buckingham County (VA) 2016-10-26
46 Mason Bederton 94.2 22:33.1 5000m Altavista (VA) 2024-09-25
47 Cameron Wallace 93.6 22:47.7 5000m Dan River (VA) 2016-10-26
48 Colin Bisson 92.3 23:01.2 5000m Chatham (NJ) 2024-09-25
49 Devon Merricks 92.3 23:01.4 5000m Chatham (NJ) 2024-09-25
50 Colin Norris 91.7 23:09.6 5000m Chatham (NJ) 2024-09-25
51 Garrett Bennett 91.6 23:17.7 5000m Chatham (NJ) 2016-10-26
52 Sam Nicholson 91.5 23:20 5000m Chatham (NJ) 2016-10-26
53 Cole Burnett 91.2 23:17.1 5000m Dan River (VA) 2024-09-25
54 Dameion Tussey 90.9 23:21.8 5000m Dan River (VA) 2024-09-25
55 Wesley Maxey 89.5 23:44.5 5000m Dan River (VA) 2024-09-25
56 Landon Reynolds 88.9 23:54 5000m Chatham (NJ) 2024-09-25
57 Jasper Cober-lake 87.9 24:10.2 5000m Nelson County (KY) 2024-09-25
58 Sterling Williams 86.9 24:27 5000m Nelson County (KY) 2024-09-25
59 Liam Robertson 86.7 24:29.6 5000m Chatham (NJ) 2024-09-25
60 Samuel (Sam) Rodriguez 85.4 24:52.3 5000m Chatham (NJ) 2024-09-25

View all →

Girls

#AthleteRatingi TimeDistSchoolDate
1 Elly Nash 123.3 20:46.8 5000m Appomattox County (VA) 2024-09-25
2 Madison Martin 112.8 22:43.4 5000m Appomattox County (VA) 2024-09-25
3 Caroline Broomell 109.3 23:25.4 5000m Chatham (NJ) 2016-10-26
4 Ilyana Servis 106.2 24:07 5000m Appomattox County (VA) 2016-10-26
5 Anna White 102.8 24:55.8 5000m Nelson County (KY) 2024-09-25
6 Kenna Thacker 100.9 25:22.6 5000m Gretna (NE) 2016-10-26
7 Brianna Salas 99.9 25:38 5000m Chatham (NJ) 2016-10-26
8 Summer Carlsen 97.5 26:15.8 5000m Chatham (NJ) 2016-10-26
9 Victoria Cothran 97.0 26:24.5 5000m Altavista (VA) 2024-09-25
10 Julie Goodman 95.7 26:47.7 5000m Appomattox County (VA) 2024-09-25
11 Liza Maxey 95.5 26:50.5 5000m Dan River (VA) 2024-09-25
12 Makayla Baker 95.2 26:55 5000m Nelson County (KY) 2024-09-25
13 Morgan Pugh 94.8 27:01.2 5000m Buckingham County (VA) 2016-10-26
14 Emma Brahn 94.5 27:06.5 5000m Gretna (NE) 2016-10-26
15 Anne Sease 93.2 27:28.2 5000m Chatham (NJ) 2016-10-26
16 Viki Spong 92.2 27:48 5000m Chatham (NJ) 2024-09-25
17 Davice Jones 91.9 27:51.6 5000m Chatham (NJ) 2016-10-26
18 Brittany Salas 91.6 27:56.5 5000m Chatham (NJ) 2016-10-26
19 Christian Poole 91.5 27:58.2 5000m Buckingham County (VA) 2016-10-26
20 Sania Little 91.2 28:07.1 5000m Altavista (VA) 2024-09-25
21 Shylynn Randolph 91.1 28:08.1 5000m Appomattox County (VA) 2024-09-25
22 Kimani Gough 90.9 28:09.4 5000m Buckingham County (VA) 2016-10-26
23 Lauren Mcfall 90.7 28:13.7 5000m Dan River (VA) 2016-10-26
24 Emma Craig 90.3 28:22 5000m Nelson County (KY) 2024-09-25
25 Lauren Lawson 89.7 28:32.2 5000m Appomattox County (VA) 2016-10-26
26 Presley Watlington 88.6 28:54.5 5000m Dan River (VA) 2016-10-26
27 Hannah Cole 88.1 29:03.9 5000m Gretna (NE) 2016-10-26
28 Karen Sanchez 87.7 29:11.2 5000m Chatham (NJ) 2016-10-26
29 Hanna Rivera 85.9 29:50.8 5000m Nelson County (KY) 2024-09-25
30 Jayda Chambers 85.5 29:57.4 5000m Buckingham County (VA) 2016-10-26
31 Mya Chambers 85.4 29:58.4 5000m Buckingham County (VA) 2016-10-26
32 Tamiyah Gough 84.9 30:09.8 5000m Buckingham County (VA) 2016-10-26
33 Kaelyn Roach 84.8 30:10.6 5000m Dan River (VA) 2016-10-26
34 Colleen Caldwell 84.1 30:26 5000m Appomattox County (VA) 2016-10-26
35 Ariyana Bradley 83.8 30:35.7 5000m Chatham (NJ) 2024-09-25
36 Rachel Pugh 83.5 30:40.2 5000m Buckingham County (VA) 2016-10-26
37 Parker Boon 83.0 30:53.2 5000m Chatham (NJ) 2024-09-25
38 Kaitlyn Weimer 82.9 30:52.6 5000m Gretna (NE) 2016-10-26
39 Salina Little 82.8 30:58.3 5000m Altavista (VA) 2024-09-25
40 Lila Ashwell 81.7 31:22 5000m Altavista (VA) 2024-09-25
41 Abigail Fitzgerald 81.2 31:33.2 5000m Nelson County (KY) 2024-09-25
42 Samaria Knick 80.4 31:52.9 5000m Dan River (VA) 2024-09-25
43 Jessica Thompson 79.8 32:05.1 5000m Dan River (VA) 2016-10-26
44 Hanna Daubert 76.5 33:29.3 5000m Gretna (NE) 2024-09-25
45 Aynsley Williams 76.4 33:30.7 5000m Appomattox County (VA) 2016-10-26
46 Alexa Burdette 74.4 34:25.4 5000m Gretna (NE) 2016-10-26
47 Halcyeon Guy 73.5 34:51.4 5000m Dan River (VA) 2016-10-26
48 Cadence Adams 72.4 35:22.7 5000m Altavista (VA) 2024-09-25
49 Sarah Reynolds 72.1 35:31.6 5000m Altavista (VA) 2024-09-25
50 Lindsay Austin 71.7 35:41.9 5000m Appomattox County (VA) 2016-10-26
51 Lauren Richardson 69.9 36:37.6 5000m Dan River (VA) 2016-10-26
52 Mary-Brooke Shelton 65.0 39:21.9 5000m Dan River (VA) 2016-10-26

View all →

Best team performances by rating top-5 average rating, one race, all distances

Boys

#SchoolTop-5 avg DistMeetDate
1 Gretna (NE) 116.8 5000m VHSL 2A Conference 37 2016-10-26
2 Appomattox County (VA) 107.7 5000m VHSL 2A Conference 37 2016-10-26
3 Dan River (VA) 107.4 5000m VHSL 2A Conference 37 2016-10-26
4 Buckingham County (VA) 99.6 5000m VHSL 2A Conference 37 2016-10-26
5 Chatham (NJ) 98.8 5000m VHSL 2A Conference 37 2016-10-26
6 Altavista (VA) 98.3 5000m Gretna XC Meet 2024-09-25
7 Nelson County (KY) 96.0 5000m Gretna XC Meet 2024-09-25

View all →

Girls

#SchoolTop-5 avg DistMeetDate
1 Chatham (NJ) 98.4 5000m VHSL 2A Conference 37 2016-10-26
2 Nelson County (KY) 91.1 5000m Gretna XC Meet 2024-09-25
3 Buckingham County (VA) 89.6 5000m VHSL 2A Conference 37 2016-10-26
4 Gretna (NE) 88.1 5000m VHSL 2A Conference 37 2016-10-26
5 Appomattox County (VA) 85.6 5000m VHSL 2A Conference 37 2016-10-26
6 Altavista (VA) 85.0 5000m Gretna XC Meet 2024-09-25
7 Dan River (VA) 83.5 5000m VHSL 2A Conference 37 2016-10-26

View all →

Meets held here all distances

MeetLast heldDistanceResults
Gretna XC Meet 2024-09-25 5000 72
VHSL 2A Conference 37 2016-10-26 5000 66

View all →